Time,TemperatureF,DewpointF,PressureIn,WindDirection,WindDirectionDegrees,WindSpeedMPH,WindSpeedGustMPH,Humidity,HourlyPrecipIn,Conditions,Clouds,dailyrainin,SoftwareType,DateUTC
2013-02-12 00:00:00,54.0,32.0,-100.00,North,-999,-999.0,-999.0,43,-99.99,,,0.00,,2013-02-12 08:00:00,
2013-02-12 00:52:00,54.0,32.0,-100.00,North,-999,-999.0,-999.0,43,-99.99,,,0.00,,2013-02-12 08:52:00,
2013-02-12 01:00:00,53.0,31.0,-100.00,North,-999,-999.0,-999.0,43,-99.99,,,0.00,,2013-02-12 09:00:00,
2013-02-12 01:52:00,53.0,31.0,-100.00,North,-999,-999.0,-999.0,43,-99.99,,,0.00,,2013-02-12 09:52:00,
2013-02-12 02:00:00,52.0,31.0,-100.00,North,-999,-999.0,-999.0,43,-99.99,,,0.00,,2013-02-12 10:00:00,
2013-02-12 02:52:00,52.0,31.0,-100.00,North,-999,-999.0,-999.0,43,-99.99,,,0.00,,2013-02-12 10:52:00,
2013-02-12 03:00:00,53.0,31.0,-100.00,North,-999,-999.0,-999.0,42,-99.99,,,0.00,,2013-02-12 11:00:00,
2013-02-12 03:52:00,53.0,31.0,-100.00,North,-999,-999.0,-999.0,42,-99.99,,,0.00,,2013-02-12 11:52:00,
2013-02-12 04:00:00,52.0,31.0,-100.00,North,-999,-999.0,-999.0,43,-99.99,,,-99.99,,2013-02-12 12:00:00,
2013-02-12 04:52:00,52.0,31.0,-100.00,North,-999,-999.0,-999.0,43,-99.99,,,-99.99,,2013-02-12 12:52:00,
2013-02-12 05:00:00,53.0,30.0,-100.00,North,-999,-999.0,-999.0,42,-99.99,,,0.00,,2013-02-12 13:00:00,
2013-02-12 05:52:00,53.0,30.0,-100.00,North,-999,-999.0,-999.0,42,-99.99,,,0.00,,2013-02-12 13:52:00,
2013-02-12 06:00:00,54.0,29.0,-100.00,North,-999,-999.0,-999.0,37,-99.99,,,0.00,,2013-02-12 14:00:00,
2013-02-12 06:52:00,54.0,29.0,-100.00,North,-999,-999.0,-999.0,37,-99.99,,,0.00,,2013-02-12 14:52:00,
2013-02-12 07:00:00,54.0,29.0,-100.00,North,-999,-999.0,-999.0,39,-99.99,,,0.00,,2013-02-12 15:00:00,
2013-02-12 07:52:00,54.0,29.0,-100.00,North,-999,-999.0,-999.0,39,-99.99,,,0.00,,2013-02-12 15:52:00,
2013-02-12 08:00:00,55.0,28.0,-100.00,North,-999,-999.0,-999.0,34,-99.99,,,0.00,,2013-02-12 16:00:00,
2013-02-12 08:52:00,55.0,28.0,-100.00,North,-999,-999.0,-999.0,34,-99.99,,,0.00,,2013-02-12 16:52:00,
2013-02-12 09:00:00,58.0,28.0,-100.00,North,-999,-999.0,-999.0,32,-99.99,,,-99.99,,2013-02-12 17:00:00,
2013-02-12 09:52:00,58.0,28.0,-100.00,North,-999,-999.0,-999.0,32,-99.99,,,-99.99,,2013-02-12 17:52:00,
2013-02-12 10:00:00,60.0,27.0,-100.00,North,-999,-999.0,-999.0,29,0.00,,,0.00,,2013-02-12 18:00:00,
2013-02-12 10:52:00,60.0,27.0,-100.00,North,-999,-999.0,-999.0,29,0.00,,,0.00,,2013-02-12 18:52:00,
2013-02-12 12:00:00,67.0,28.0,-100.00,North,-999,-999.0,-999.0,23,-99.99,,,0.00,,2013-02-12 20:00:00,
2013-02-12 12:52:00,67.0,28.0,-100.00,North,-999,-999.0,-999.0,23,-99.99,,,0.00,,2013-02-12 20:52:00,
2013-02-12 13:00:00,69.0,23.0,-100.00,North,-999,-999.0,-999.0,18,0.00,,,0.00,,2013-02-12 21:00:00,
2013-02-12 13:52:00,69.0,23.0,-100.00,North,-999,-999.0,-999.0,18,0.00,,,0.00,,2013-02-12 21:52:00,
2013-02-12 14:00:00,70.0,24.0,-100.00,North,-999,-999.0,-999.0,18,0.00,,,0.00,,2013-02-12 22:00:00,
2013-02-12 14:52:00,70.0,24.0,-100.00,North,-999,-999.0,-999.0,18,0.00,,,0.00,,2013-02-12 22:52:00,
2013-02-12 15:00:00,70.0,27.0,-100.00,North,-999,-999.0,-999.0,20,0.00,,,0.00,,2013-02-12 23:00:00,
2013-02-12 15:52:00,70.0,27.0,-100.00,North,-999,-999.0,-999.0,20,0.00,,,0.00,,2013-02-12 23:52:00,
2013-02-12 16:00:00,69.0,23.0,-100.00,North,-999,-999.0,-999.0,18,0.00,,,0.00,,2013-02-13 00:00:00,
2013-02-12 16:52:00,69.0,23.0,-100.00,North,-999,-999.0,-999.0,18,0.00,,,0.00,,2013-02-13 00:52:00,
2013-02-12 17:00:00,68.0,30.0,-100.00,North,-999,-999.0,-999.0,25,0.00,,,0.00,,2013-02-13 01:00:00,
2013-02-12 17:52:00,68.0,30.0,-100.00,North,-999,-999.0,-999.0,25,0.00,,,0.00,,2013-02-13 01:52:00,
2013-02-12 18:00:00,62.0,32.0,-100.00,North,-999,-999.0,-999.0,32,0.00,,,0.00,,2013-02-13 02:00:00,
2013-02-12 18:52:00,62.0,32.0,-100.00,North,-999,-999.0,-999.0,32,0.00,,,0.00,,2013-02-13 02:52:00,
2013-02-12 19:00:00,60.0,31.0,-100.00,North,-999,-999.0,-999.0,33,-99.99,,,0.00,,2013-02-13 03:00:00,
2013-02-12 19:52:00,60.0,31.0,-100.00,North,-999,-999.0,-999.0,33,-99.99,,,0.00,,2013-02-13 03:52:00,
2013-02-12 20:00:00,59.0,31.0,-100.00,North,-999,-999.0,-999.0,34,-99.99,,,0.00,,2013-02-13 04:00:00,
2013-02-12 20:52:00,59.0,31.0,-100.00,North,-999,-999.0,-999.0,34,-99.99,,,0.00,,2013-02-13 04:52:00,
2013-02-12 21:00:00,58.0,32.0,-100.00,North,-999,-999.0,-999.0,37,-99.99,,,0.00,,2013-02-13 05:00:00,
2013-02-12 21:52:00,58.0,32.0,-100.00,North,-999,-999.0,-999.0,37,-99.99,,,0.00,,2013-02-13 05:52:00,
2013-02-12 22:00:00,58.0,32.0,-100.00,North,-999,-999.0,-999.0,38,-99.99,,,-99.99,,2013-02-13 06:00:00,
2013-02-12 22:52:00,58.0,32.0,-100.00,North,-999,-999.0,-999.0,38,-99.99,,,-99.99,,2013-02-13 06:52:00,
2013-02-12 23:00:00,56.0,32.0,-100.00,North,-999,-999.0,-999.0,40,-99.99,,,0.00,,2013-02-13 07:00:00,
2013-02-12 23:52:00,56.0,32.0,-100.00,North,-999,-999.0,-999.0,40,-99.99,,,0.00,,2013-02-13 07:52:00,